This is the latest recevied weather packets stored in our database for station/object KO4FR. If no packets are shown the sender has not sent any weather packets the latest 10 day(s).
| Time | Temp. | Humidity | Pressure | Rain* | Wind** | Luminosity | Snow |
|---|---|---|---|---|---|---|---|
| 1777222803 | 11.67° C | 56% | 1018.3 hPa | 0 mm | - | - | - |
| 1777222503 | 11.67° C | 53% | 1018.3 hPa | 0 mm | - | - | - |
| 1777222203 | 11.67° C | 44% | 1018.3 hPa | 0 mm | - | - | - |
| 1777221903 | 11.11° C | 39% | 1018.3 hPa | 0 mm | - | - | - |
| 1777221603 | 11.11° C | 39% | 1018.3 hPa | 0 mm | - | - | - |
| 1777221303 | 11.11° C | 39% | 1018.4 hPa | 0 mm | - | - | - |
| 1777221003 | 11.11° C | 35% | 1018.4 hPa | 0 mm | - | - | - |
| 1777220703 | 10.56° C | 34% | 1018.3 hPa | 0 mm | - | - | - |
| 1777220403 | 10.56° C | 27% | 1018.3 hPa | 0 mm | - | - | - |
| 1777220102 | 10.56° C | 23% | 1018.2 hPa | 0 mm | - | - | - |
| 1777219803 | 10.56° C | 26% | 1018.3 hPa | 0 mm | - | - | - |
| 1777219503 | 10.56° C | 19% | 1018.3 hPa | 0 mm | - | - | - |
| 1777219203 | 10.56° C | 17% | 1018.2 hPa | 0 mm | - | - | - |
| 1777218903 | 10.56° C | 11% | 1018.1 hPa | 0 mm | - | - | - |
| 1777218603 | 10° C | 7% | 1017.9 hPa | 0 mm | - | - | - |
| 1777218303 | 10° C | 4% | 1018 hPa | 0 mm | - | - | - |
| 1777218003 | 10° C | 4% | 1018 hPa | 0 mm | - | - | - |
| 1777217703 | 9.44° C | 5% | 1018.1 hPa | 0 mm | - | - | - |
| 1777217403 | 9.44° C | 6% | 1018 hPa | 0 mm | - | - | - |
| 1777217103 | 9.44° C | 6% | 1017.9 hPa | 0 mm | - | - | - |
| 1777216803 | 9.44° C | 4% | 1017.8 hPa | 0 mm | - | - | - |
| 1777216503 | 9.44° C | 5% | 1017.8 hPa | 0 mm | - | - | - |
| 1777216203 | 9.44° C | 5% | 1017.9 hPa | 0 mm | - | - | - |
| 1777215903 | 9.44° C | 5% | 1017.8 hPa | 0 mm | - | - | - |
| 1777215602 | 10° C | 5% | 1017.6 hPa | 0 mm | - | - | - |
* Rain latest hour (hover to see other rain measurements)
** Current wind speed in m/s (hover to see current wind gust speed)